This is the latest recevied weather packets stored in our database for station/object KF7PIZ. If no packets are shown the sender has not sent any weather packets the latest 10 day(s).
| Time | Temp. | Humidity | Pressure | Rain* | Wind** | Luminosity | Snow |
|---|---|---|---|---|---|---|---|
| 1777174944 | 11.11° C | 47% | 1005.9 hPa | 0 mm | - | 0 W/m² | - |
| 1777174640 | 11.11° C | 48% | 1005.8 hPa | 0 mm | - | 0 W/m² | - |
| 1777174340 | 11.11° C | 49% | 1005.8 hPa | 0 mm | - | 0 W/m² | - |
| 1777174035 | 11.11° C | 48% | 1005.9 hPa | 0 mm | - | 0 W/m² | - |
| 1777173733 | 11.11° C | 49% | 1005.4 hPa | 0 mm | - | 0 W/m² | - |
| 1777173427 | 11.67° C | 47% | 1005.4 hPa | 0 mm | - | 0 W/m² | - |
| 1777173127 | 11.67° C | 47% | 1005.3 hPa | 0 mm | - | 0 W/m² | - |
| 1777172825 | 11.67° C | 45% | 1005.4 hPa | 0 mm | - | 0 W/m² | - |
| 1777172522 | 11.67° C | 46% | 1005.3 hPa | 0 mm | - | 0 W/m² | - |
| 1777172216 | 12.22° C | 45% | 1005 hPa | 0 mm | - | 0 W/m² | - |
| 1777171914 | 12.22° C | 44% | 1005.2 hPa | 0 mm | - | 0 W/m² | - |
| 1777171609 | 12.22° C | 45% | 1005.1 hPa | 0 mm | - | 0 W/m² | - |
| 1777171305 | 12.78° C | 45% | 1005.1 hPa | 0 mm | - | 1 W/m² | - |
| 1777170999 | 12.78° C | 45% | 1005.1 hPa | 0 mm | - | 3 W/m² | - |
| 1777170699 | 12.78° C | 45% | 1005.1 hPa | 0 mm | - | 4 W/m² | - |
| 1777170396 | 13.33° C | 44% | 1005.2 hPa | 0 mm | - | 7 W/m² | - |
| 1777170093 | 13.33° C | 44% | 1004.8 hPa | 0 mm | - | 10 W/m² | - |
| 1777169790 | 13.33° C | 44% | 1005.1 hPa | 0 mm | - | 13 W/m² | - |
| 1777169487 | 13.33° C | 43% | 1005.1 hPa | 0 mm | - | 18 W/m² | - |
| 1777169187 | 13.89° C | 43% | 1005.2 hPa | 0 mm | - | 24 W/m² | - |
| 1777168882 | 13.89° C | 42% | 1004.9 hPa | 0 mm | - | 28 W/m² | - |
| 1777168579 | 14.44° C | 40% | 1004.9 hPa | 0 mm | - | 32 W/m² | - |
| 1777168275 | 14.44° C | 42% | 1004.9 hPa | 0 mm | - | 35 W/m² | - |
| 1777167974 | 14.44° C | 40% | 1005 hPa | 0 mm | - | 40 W/m² | - |
| 1777167674 | 14.44° C | 41% | 1004.9 hPa | 0 mm | - | 44 W/m² | - |
* Rain latest hour (hover to see other rain measurements)
** Current wind speed in m/s (hover to see current wind gust speed)